Weather History for Crosby, ND

Change the Weather History Date:

Saturday, June 7, 2014

  Actual Average (KISN) Record (KISN)
Temperature  
Mean Temperature 56 °F 61 °F  
Max Temperature 66 °F 74 °F 105 °F (1988)
Min Temperature 46 °F 48 °F 35 °F (1966)
Degree Days  
Heating Degree Days 9 6  
Month to date heating degree days 44  
Since 1 June heating degree days 44  
Since 1 July heating degree days 8918  
Cooling Degree Days 0 1  
Month to date cooling degree days 7  
Year to date cooling degree days 20  
Since 1 June cooling degree days 7  
Growing Degree Days 6 (Base 50)    
Moisture  
Dew Point 39 °F    
Average Humidity 55    
Maximum Humidity 94    
Minimum Humidity 24    
Precipitation  
Precipitation 0.00 in 0.08 in 2.21 in (1994)
Month to date precipitation 0.54  
Year to date precipitation 5.15  
Sea Level Pressure  
Sea Level Pressure 30.10 in    
Wind  
Wind Speed 7 mph (WSW)    
Max Wind Speed 25 mph    
Max Gust Speed 34 mph    
T = Trace of Precipitation, MM = Missing Value Source: NWS Daily Summary

Daily Weather History Graph

Daily Weather History Graph

Search for Another Location

Airport:

Trip Planner

Search our weather history database for the weather conditions in past years. The results will help you decide how hot, cold, wet, or windy it might be!

Date:

Astronomy

Jun. 07, 2014 Rise Set
Actual Time 5:50 AM CDT 9:54 PM CDT
Civil Twilight 5:08 AM CDT 10:36 PM CDT
Nautical Twilight 4:09 AM CDT 11:35 PM CDT
Astronomical Twilight 2:22 AM CDT 1:26 AM CDT
Moon 3:47 PM CDT (6/7) 2:43 AM CDT (6/7)
Length of Visible Light 17h 27m
Length of Day
16h 03m
Waxing Gibbous, 68% of the Moon is Illuminated
Jun 7
Waxing Gibbous
Jun 12
Full
Jun 19
Last Quarter
Jun 27
New
Jul 5
First Quarter

Hourly Weather History & Observations

Time (CDT) Temp. Windchill Dew Point Humidity Pressure Visibility Wind Dir Wind Speed Gust Speed Precip Events Conditions
12:15 AM 50.0 °F - 42.8 °F 76% 30.13 in - Calm Calm - N/A   Overcast
12:35 AM 50.0 °F - 42.8 °F 76% 30.13 in - WSW 4.6 mph - N/A   Mostly Cloudy
12:55 AM 48.2 °F - 46.4 °F 93% 30.13 in - SW 4.6 mph - N/A   Unknown
1:15 AM 48.2 °F - 44.6 °F 87% 30.13 in - WSW 9.2 mph - N/A   Unknown
1:35 AM 51.8 °F - 39.2 °F 62% 30.13 in - West 18.4 mph - N/A   Scattered Clouds
1:55 AM 51.8 °F - 35.6 °F 54% 30.15 in - SW 4.6 mph 34.5 mph N/A Rain Light Rain
2:15 AM 50.0 °F - 37.4 °F 62% 30.12 in - ENE 5.8 mph - N/A   Mostly Cloudy
2:35 AM 50.0 °F - 41.0 °F 71% 30.11 in - ESE 5.8 mph - N/A   Scattered Clouds
2:55 AM 48.2 °F - 42.8 °F 82% 30.11 in - South 4.6 mph - N/A   Overcast
3:15 AM 48.2 °F - 44.6 °F 87% 30.11 in - South 3.5 mph - N/A   Unknown
3:35 AM 48.2 °F - 46.4 °F 93% 30.12 in - SSW 5.8 mph - N/A   Mostly Cloudy
3:55 AM 48.2 °F - 46.4 °F 93% 30.12 in - South 10.4 mph - N/A   Unknown
4:15 AM 48.2 °F - 44.6 °F 87% 30.13 in - SSW 8.1 mph - N/A   Mostly Cloudy
4:35 AM 48.2 °F - 46.4 °F 93% 30.13 in - SW 6.9 mph - N/A   Mostly Cloudy
4:55 AM 48.2 °F - 46.4 °F 93% 30.13 in - SW 8.1 mph - N/A   Unknown
5:15 AM 48.2 °F - 46.4 °F 93% 30.13 in - SW 6.9 mph - N/A   Mostly Cloudy
5:35 AM 46.4 °F 41.9 °F 44.6 °F 93% 30.13 in - SW 9.2 mph - N/A   Unknown
5:55 AM 46.4 °F 42.4 °F 44.6 °F 93% 30.13 in - SW 8.1 mph - N/A   Unknown
6:15 AM 46.4 °F 41.5 °F 42.8 °F 87% 30.13 in - SW 10.4 mph - N/A   Unknown
6:35 AM 46.4 °F 41.9 °F 44.6 °F 93% 30.13 in - WSW 9.2 mph - N/A   Unknown
7:15 AM 48.2 °F - 44.6 °F 87% 30.14 in - WSW 9.2 mph - N/A   Unknown
8:15 AM 53.6 °F - 41.0 °F 62% 30.14 in - West 11.5 mph - N/A   Clear
8:35 AM 53.6 °F - 41.0 °F 62% 30.14 in - West 15.0 mph - N/A   Clear
8:55 AM 55.4 °F - 41.0 °F 58% 30.14 in - West 12.7 mph - N/A   Clear
9:15 AM 55.4 °F - 39.2 °F 54% 30.15 in - West 11.5 mph - N/A   Clear
9:35 AM 57.2 °F - 39.2 °F 51% 30.15 in - West 13.8 mph - N/A   Clear
9:55 AM 57.2 °F - 37.4 °F 48% 30.15 in - WNW 13.8 mph 17.3 mph N/A   Clear
10:15 AM 59.0 °F - 39.2 °F 48% 30.14 in - WNW 12.7 mph - N/A   Clear
10:35 AM 59.0 °F - 37.4 °F 45% 30.14 in - WNW 11.5 mph 17.3 mph N/A   Clear
10:55 AM 59.0 °F - 37.4 °F 45% 30.13 in - WNW 15.0 mph - N/A   Clear
11:15 AM 59.0 °F - 35.6 °F 42% 30.13 in - NNW 5.8 mph - N/A   Clear
11:35 AM 60.8 °F - 35.6 °F 39% 30.13 in - NNW 11.5 mph 16.1 mph N/A   Partly Cloudy
11:55 AM 60.8 °F - 35.6 °F 39% 30.13 in - NW 6.9 mph 19.6 mph N/A   Clear
12:15 PM 60.8 °F - 32.0 °F 34% 30.13 in - NNW 5.8 mph - N/A   Clear
12:35 PM 62.6 °F - 35.6 °F 37% 30.12 in - North 5.8 mph - N/A   Partly Cloudy
12:55 PM 62.6 °F - 33.8 °F 34% 30.11 in - North 3.5 mph - N/A   Clear
1:15 PM 62.6 °F - 32.0 °F 32% 30.11 in - Calm Calm - N/A   Scattered Clouds
1:35 PM 62.6 °F - 32.0 °F 32% 30.11 in - West 3.5 mph - N/A   Partly Cloudy
1:55 PM 64.4 °F - 33.8 °F 32% 30.10 in - Calm Calm - N/A   Partly Cloudy
2:15 PM 62.6 °F - 32.0 °F 32% 30.10 in - WSW 4.6 mph - N/A   Partly Cloudy
2:35 PM 62.6 °F - 32.0 °F 32% 30.10 in - NNW 4.6 mph - N/A   Partly Cloudy
2:55 PM 62.6 °F - 32.0 °F 32% 30.09 in - West 6.9 mph - N/A   Clear
3:15 PM 62.6 °F - 32.0 °F 32% 30.09 in - WNW 4.6 mph - N/A   Partly Cloudy
3:35 PM 62.6 °F - 30.2 °F 30% 30.08 in - SSW 3.5 mph - N/A   Mostly Cloudy
3:55 PM 64.4 °F - 32.0 °F 30% 30.08 in - SSW 6.9 mph - N/A   Mostly Cloudy
4:15 PM 66.2 °F - 32.0 °F 28% 30.07 in - SW 8.1 mph - N/A   Partly Cloudy
4:35 PM 66.2 °F - 32.0 °F 28% 30.07 in - WNW 9.2 mph - N/A   Scattered Clouds
4:55 PM 66.2 °F - 28.4 °F 24% 30.07 in - East 4.6 mph - N/A   Mostly Cloudy
5:15 PM 66.2 °F - 30.2 °F 26% 30.06 in - North 4.6 mph - N/A   Mostly Cloudy
5:35 PM 66.2 °F - 32.0 °F 28% 30.06 in - SW 8.1 mph - N/A   Partly Cloudy
5:55 PM 66.2 °F - 33.8 °F 30% 30.06 in - SSW 8.1 mph - N/A   Scattered Clouds
6:15 PM 64.4 °F - 33.8 °F 32% 30.05 in - South 3.5 mph - N/A   Mostly Cloudy
6:35 PM 66.2 °F - 33.8 °F 30% 30.05 in - South 8.1 mph - N/A   Scattered Clouds
6:55 PM 66.2 °F - 33.8 °F 30% 30.04 in - ESE 3.5 mph - N/A   Mostly Cloudy
7:15 PM 64.4 °F - 33.8 °F 32% 30.04 in - SSW 6.9 mph - N/A   Scattered Clouds
7:35 PM 66.2 °F - 35.6 °F 32% 30.03 in - SSW 8.1 mph - N/A   Clear
7:55 PM 66.2 °F - 35.6 °F 32% 30.03 in - SSW 6.9 mph - N/A   Clear
8:15 PM 64.4 °F - 37.4 °F 37% 30.03 in - SSW 6.9 mph - N/A   Partly Cloudy
8:35 PM 64.4 °F - 37.4 °F 37% 30.03 in - SSW 9.2 mph - N/A   Scattered Clouds
8:55 PM 62.6 °F - 39.2 °F 42% 30.03 in - SSW 6.9 mph - N/A   Partly Cloudy
9:15 PM 62.6 °F - 39.2 °F 42% 30.02 in - South 9.2 mph - N/A   Scattered Clouds
9:35 PM 60.8 °F - 39.2 °F 45% 30.02 in - South 8.1 mph - N/A   Clear
9:55 PM 59.0 °F - 39.2 °F 48% 30.02 in - South 9.2 mph - N/A   Partly Cloudy
10:15 PM 59.0 °F - 41.0 °F 51% 30.03 in - SSW 6.9 mph - N/A   Clear
10:35 PM 57.2 °F - 44.6 °F 63% 30.09 in - NW 25.3 mph 29.9 mph N/A   Mostly Cloudy
10:55 PM 51.8 °F - 50.0 °F 94% 30.10 in - NW 17.3 mph 28.8 mph N/A Rain Light Rain
11:15 PM 51.8 °F - 48.2 °F 88% 30.09 in - NNW 10.4 mph 17.3 mph N/A Rain Light Rain
11:35 PM 51.8 °F - 50.0 °F 94% 30.08 in - North 6.9 mph - N/A   Unknown
11:55 PM 51.8 °F - 50.0 °F 94% 30.09 in - SSW 5.8 mph - N/A   Unknown